Location: Deuil
(48.9767°N, 2.3272°E)
Time: 00:32:29
(UTC+00:00)

Cosmos 2228 - Pass Details

Date: 06 June 2022
Orbit: 586 x 617 km, 82.5° (Epoch: 03 July)

Event Time Altitude Azimuth Distance (km) Brightness Sun altitude
Rises 23:26:52 0° 4° (N) 2,875 8.1 -18.1°
Reaches altitude 10° 23:30:00 10° 28° (NNE) 1,958 6.5 -18.2°
Maximum altitude 23:32:31 15° 64° (ENE) 1,642 5.5 -18.2°
Drops below altitude 10° 23:35:00 10° 100° (E) 1,938 5.5 -18.2°
Enters shadow 23:35:47 - 108° (ESE) 2,128 5.6 -18.2°
